Stations météo

réclame
Mon MeteoGroup
Schleswig, Allemagne (10035): Température de l'air & dewpoint: 19.09.2018 09:00:00 - 25.09.2018 09:00:00 (CEST)Schleswig, Allemagne (10035): Température de l'air 5cm & Température de l'air -5cm: 19.09.2018 09:00:00 - 25.09.2018 09:00:00 (CEST)Schleswig, Allemagne (10035): Température de l'air -20cm & Température de l'air -100cm: 19.09.2018 09:00:00 - 25.09.2018 09:00:00 (CEST)Schleswig, Allemagne (10035): Vitesse du vent & gusts: 19.09.2018 09:00:00 - 25.09.2018 09:00:00 (CEST)Schleswig, Allemagne (10035): Direction du vent: 19.09.2018 09:00:00 - 25.09.2018 09:00:00 (CEST)Schleswig, Allemagne (10035): reduced air pressure: 19.09.2018 09:00:00 - 25.09.2018 09:00:00 (CEST)Schleswig, Allemagne (10035): visibility: 19.09.2018 09:00:00 - 25.09.2018 09:00:00 (CEST)Schleswig, Allemagne (10035): Ensoleillement: 19.09.2018 09:00:00 - 25.09.2018 09:00:00 (CEST)Schleswig, Allemagne (10035): Quantités de précipitations: 19.09.2018 09:00:00 - 25.09.2018 09:00:00 (CEST)
Date & Time tt [°C] td [°C] tt 5cm [°C] tt -5cm [°C] tt -20cm [°C] tt -100cm [°C] ff [km/h] ff [knt] fx [km/h] fx [knt] dd ppp [hPa] vv [km] sd [min] rr [mm]
25.09.2018 09:00:00 7,6 4,1 5,3 5,3 9,6 15,1 6 3 11 6 W 1036,0 35 47 0,0
25.09.2018 08:00:00 4,3 3,2 1,1 4,4 9,8 15,1 9 5 12 7 W 1035,5 35 18 0,0
25.09.2018 07:00:00 3,9 3,0 0,6 4,5 10,0 15,2 9 5 15 8 W 1035,4 35 0 0,0
25.09.2018 06:00:00 3,9 2,8 1,4 4,7 10,2 15,2 6 3 13 7 W 1034,7 35 0 0,0
25.09.2018 05:00:00 4,6 3,1 1,3 5,0 10,5 15,2 8 4 18 10 WNW 1034,4 39 0 0,0
25.09.2018 04:00:00 4,2 3,0 1,0 5,2 10,7 15,2 10 5 16 9 W 1033,8 37 0 0,0
25.09.2018 03:00:00 4,9 3,3 1,5 5,4 11,0 15,2 11 6 19 11 WNW 1033,6 40 0 0,0
25.09.2018 02:00:00 4,4 3,1 1,3 5,8 11,3 15,2 11 6 15 8 WNW 1033,2 38 0 0,0
25.09.2018 01:00:00 5,0 3,4 2,1 6,2 11,6 15,2 11 6 17 9 WNW 1032,9 45 0 0,0
25.09.2018 00:00:00 4,8 3,5 1,9 6,7 11,9 15,3 10 5 15 8 W 1032,3 36 0 0,0
24.09.2018 23:00:00 6,2 3,5 3,4 7,2 12,2 15,3 9 5 26 14 WNW 1031,7 37 0 0,0
24.09.2018 22:00:00 7,1 3,5 5,3 7,6 12,5 15,3 16 8 28 15 WNW 1030,9 44 0 0,0
24.09.2018 21:00:00 7,4 3,3 5,6 8,2 12,8 15,3 16 9 37 20 WNW 1029,9 35 0 0,0
24.09.2018 20:00:00 7,4 3,6 6,0 9,0 13,1 15,3 18 10 32 18 WNW 1029,1 35 0 0,0
24.09.2018 19:00:00 8,0 3,2 6,7 10,0 13,4 15,3 16 9 39 21 WNW 1028,6 35 26 0,0
24.09.2018 18:00:00 9,3 2,5 9,0 11,5 13,4 15,4 29 16 51 27 NW 1028,1 40 44 0,0
24.09.2018 17:00:00 9,6 3,5 9,6 13,7 13,2 15,4 29 16 59 32 NW 1027,6 20 48 0,0
24.09.2018 16:00:00 11,1 2,7 14,1 14,8 12,9 15,4 30 16 56 31 NW 1027,2 40 60 0,0
24.09.2018 15:00:00 9,7 4,4 12,8 15,3 12,5 15,4 21 11 57 31 NW 1027,0 40 47 0,4
24.09.2018 14:00:00 12,3 4,9 16,7 15,6 12,1 15,4 24 13 41 22 WNW 1026,3 35 48 0,0
24.09.2018 13:00:00 10,4 4,8 11,2 13,7 11,7 15,4 20 11 43 23 WNW 1025,6 30 29 0,0
24.09.2018 12:00:00 11,7 3,6 14,0 13,5 11,3 15,4 26 14 47 25 WNW 1024,9 30 56 0,0
24.09.2018 11:00:00 11,9 4,1 13,8 12,4 11,0 15,5 23 13 50 27 WNW 1024,2 30 55 0,0
24.09.2018 10:00:00 10,8 3,4 11,6 10,3 10,9 15,5 23 12 44 24 WNW 1023,5 30 60 0,0
24.09.2018 09:00:00 9,3 3,5 8,4 7,7 11,0 15,5 21 11 52 28 NW 1022,2 30 58 0,0
24.09.2018 08:00:00 8,7 5,0 8,2 7,3 11,1 15,5 20 11 36 20 WNW 1021,5 30 16 0,0
24.09.2018 07:00:00 8,1 4,6 6,8 7,0 11,2 15,5 17 9 32 17 WNW 1020,7 30 0 0,0
24.09.2018 06:00:00 8,5 4,6 6,6 7,4 11,4 15,5 19 10 43 23 NW 1019,7 30 0 0,0
24.09.2018 05:00:00 8,1 4,6 6,3 7,2 11,6 15,5 19 10 39 21 WNW 1019,1 48 0 0,0
24.09.2018 04:00:00 7,7 4,5 5,3 7,2 11,8 15,5 14 8 30 16 WNW 1018,1 41 0 0,0
24.09.2018 03:00:00 8,1 5,0 6,5 7,4 12,0 15,6 19 10 34 18 WNW 1017,3 42 0 0,0
24.09.2018 02:00:00 8,1 5,1 6,2 7,6 12,3 15,6 16 9 30 16 WNW 1016,4 37 0 0,0
24.09.2018 01:00:00 7,5 5,0 5,7 7,8 12,5 15,6 14 7 31 17 W 1015,7 47 0 0,0
24.09.2018 00:00:00 7,1 5,5 5,4 8,2 12,8 15,6 13 7 22 12 W 1015,0 43 0 0,0
23.09.2018 23:00:00 7,6 5,5 5,9 8,6 13,1 15,6 14 7 25 14 WNW 1014,0 46 0 0,0
23.09.2018 22:00:00 7,4 5,7 5,0 9,1 13,4 15,6 11 6 19 10 WNW 1013,0 51 0 0,0
23.09.2018 21:00:00 8,2 5,7 6,6 9,9 13,6 15,6 12 7 24 13 WNW 1012,0 40 0 0,0
23.09.2018 20:00:00 9,2 5,7 7,6 10,8 13,8 15,7 13 7 24 13 WNW 1010,9 40 0 0,0
23.09.2018 19:00:00 10,5 6,3 9,9 12,2 13,9 15,7 12 7 23 13 NW 1010,0 40 0 0,0
23.09.2018 18:00:00 10,9 7,0 10,6 13,0 13,9 15,7 12 6 34 18 NW 1009,9 40 0 0,0
23.09.2018 17:00:00 11,6 8,1 11,9 14,2 13,9 15,7 8 4 20 11 NW 1009,9 35 0 0,0
23.09.2018 16:00:00 12,3 9,3 12,6 14,5 13,7 15,7 5 3 11 6 WNW 1009,6 40 0 0,0
23.09.2018 15:00:00 12,1 8,9 11,8 14,8 13,5 15,7 6 3 12 6 WNW 1010,5 15 0 0,0
23.09.2018 14:00:00 12,5 9,3 12,6 15,6 13,1 15,7 6 4 11 6 NW 1010,7 40 0 0,1
23.09.2018 13:00:00 12,4 9,5 12,1 15,5 12,8 15,7 7 4 14 8 W 1011,2 8 10 0,4
23.09.2018 12:00:00 12,0 9,2 13,0 13,8 12,5 15,7 6 3 15 8 WSW 1011,8 35 0 0,0
23.09.2018 11:00:00 11,3 9,4 12,0 12,5 12,4 15,8 6 3 12 7 W 1012,1 35 0 0,0
23.09.2018 10:00:00 9,6 8,7 10,0 11,2 12,4 15,8 11 6 19 10 SSW 1012,3 20 0 1,0
23.09.2018 09:00:00 9,1 8,5 9,1 10,2 12,4 15,8 9 5 15 8 WNW 1012,3 7 6 1,1
23.09.2018 08:00:00 8,5 7,8 8,2 9,6 12,5 15,8 7 4 15 8 SW 1012,3 30 0 0,1
23.09.2018 07:00:00 8,5 7,8 7,7 9,6 12,6 15,8 9 5 26 14 SW 1012,2 20 0 1,3
23.09.2018 06:00:00 8,5 7,6 8,2 9,6 12,7 15,8 8 4 14 8 S 1012,3 25 0 0,4
23.09.2018 05:00:00 8,8 8,0 8,3 9,5 12,8 15,8 5 3 14 8 WSW 1012,8 44 0 0,1
23.09.2018 04:00:00 8,6 7,7 7,4 9,3 13,0 15,8 10 5 22 12 WSW 1013,0 42 0 0,0
23.09.2018 03:00:00 8,3 7,3 5,9 9,4 13,1 15,8 8 5 26 14 W 1013,2 45 0 0,6
23.09.2018 02:00:00 8,8 7,4 8,0 9,6 13,4 15,9 8 4 21 11 WSW 1013,6 20 0 0,0
23.09.2018 01:00:00 9,0 7,0 6,8 9,4 13,6 15,9 7 4 15 8 SW 1013,4 31 0 0,0
23.09.2018 00:00:00 9,7 6,9 8,1 9,8 13,8 15,9 9 5 22 12 WSW 1013,2 35 0 0,0
22.09.2018 23:00:00 10,2 6,3 8,7 10,3 14,1 15,9 14 8 38 20 W 1013,2 45 0 0,0
22.09.2018 22:00:00 10,1 6,4 8,6 10,4 14,3 15,9 13 7 25 13 WSW 1013,2 37 0 0,0
22.09.2018 21:00:00 9,8 6,5 7,4 10,9 14,6 15,9 10 5 31 17 W 1013,0 35 0 0,0
22.09.2018 20:00:00 11,3 5,6 9,7 11,6 14,8 15,9 18 10 46 25 W 1012,6 35 0 0,0
22.09.2018 19:00:00 12,0 5,7 11,1 12,4 15,0 15,9 20 11 52 28 W 1012,5 35 25 0,0
22.09.2018 18:00:00 13,5 5,1 12,6 13,7 15,0 15,9 23 13 53 29 W 1012,6 35 57 0,0
22.09.2018 17:00:00 14,5 5,5 14,4 15,4 14,8 16,0 25 14 52 28 W 1012,5 35 46 0,0
22.09.2018 16:00:00 15,0 5,9 18,1 16,1 14,6 16,0 28 15 56 30 W 1012,8 35 54 0,0
22.09.2018 15:00:00 14,9 5,7 17,9 16,1 14,3 16,0 28 15 56 31 W 1012,6 35 36 0,0
22.09.2018 14:00:00 14,9 7,4 18,5 16,7 13,9 16,0 24 13 64 34 W 1012,5 40 44 0,0
22.09.2018 13:00:00 14,6 7,7 16,5 15,6 13,5 16,0 27 15 53 29 W 1012,2 40 25 0,1
22.09.2018 12:00:00 12,5 7,6 11,9 14,2 13,2 16,0 24 13 58 31 WSW 1012,3 20 24 0,0
22.09.2018 11:00:00 13,9 9,9 14,6 14,4 13,0 16,0 16 8 40 22 WSW 1011,8 40 39 0,0
22.09.2018 10:00:00 10,5 8,9 10,1 11,6 12,9 16,0 15 8 28 15 W 1012,1 30 33 1,2
22.09.2018 09:00:00 10,3 8,1 9,4 9,9 13,0 16,0 12 6 34 18 WSW 1011,8 35 37 0,2
22.09.2018 08:00:00 8,8 7,0 7,4 8,7 13,2 16,0 9 5 16 9 SW 1011,4 30 16 0,0
22.09.2018 07:00:00 7,9 7,2 6,6 8,9 13,5 16,0 9 5 12 6 SSW 1011,0 25 0 0,0
22.09.2018 06:00:00 8,2 7,4 6,7 9,4 13,7 16,0 8 5 16 9 SW 1010,6 25 0 0,0
22.09.2018 05:00:00 9,0 8,0 7,8 10,1 13,8 16,0 10 5 18 10 SW 1009,7 31 0 0,0
22.09.2018 04:00:00 9,9 9,0 9,5 10,7 13,9 16,0 11 6 29 16 SW 1009,0 34 0 0,1
22.09.2018 03:00:00 9,9 8,6 9,1 10,7 14,1 16,0 20 11 42 23 WSW 1008,2 37 0 0,4
22.09.2018 02:00:00 10,2 8,5 9,2 10,9 14,2 16,0 19 10 34 19 WSW 1007,3 39 0 0,3
22.09.2018 01:00:00 10,1 9,2 9,6 10,9 14,4 16,0 9 5 36 19 W 1006,9 23 0 0,1
22.09.2018 00:00:00 9,7 8,6 9,1 10,5 14,7 16,0 19 11 46 25 SW 1006,1 28 0 2,3
21.09.2018 23:00:00 9,6 7,6 8,8 10,7 15,0 16,0 24 13 48 26 SW 1005,6 15 0 0,4
21.09.2018 22:00:00 9,5 7,9 8,8 11,1 15,3 16,0 29 15 52 28 SW 1005,0 4,8 0 1,0
21.09.2018 21:00:00 9,7 6,9 8,7 11,4 15,6 16,0 22 12 67 36 WSW 1004,6 15 0 0,3
21.09.2018 20:00:00 11,0 6,1 10,2 12,0 15,9 16,0 23 12 54 29 WSW 1003,7 30 0 0,1
21.09.2018 19:00:00 10,8 7,2 9,6 13,2 16,1 16,0 22 12 54 29 WSW 1003,5 10 3 0,4
21.09.2018 18:00:00 11,4 7,7 10,3 14,7 16,2 16,0 29 15 55 30 W 1002,9 15 9 0,2
21.09.2018 17:00:00 12,7 9,7 12,7 15,6 16,1 16,0 21 11 51 27 WSW 1002,3 30 28 0,5
21.09.2018 16:00:00 14,8 8,4 16,8 16,2 16,1 16,0 24 13 57 31 WSW 1001,3 30 19 0,0
21.09.2018 15:00:00 14,5 9,1 15,1 16,1 16,0 16,0 28 15 70 38 WSW 1000,9 25 9 0,0
21.09.2018 14:00:00 14,9 10,3 14,5 15,6 16,0 16,0 33 18 54 29 WSW 1000,1 20 3 0,0
21.09.2018 13:00:00 14,3 12,6 14,0 15,4 16,0 16,0 24 13 64 34 WSW 999,3 15 0 1,8
21.09.2018 12:00:00 14,8 14,1 14,6 15,9 15,9 16,0 34 18 64 35 SW 998,2 8 0 5,3
21.09.2018 11:00:00 19,5 12,7 16,9 16,3 15,8 16,0 39 21 67 36 SSW 996,9 10 0 0,0
21.09.2018 10:00:00 20,0 12,3 19,6 15,8 15,8 16,0 30 16 51 28 SSW 997,0 30 0 0,0
21.09.2018 09:00:00 18,8 12,1 18,0 15,0 15,8 16,0 20 11 34 18 S 997,8 30 1 0,0
21.09.2018 08:00:00 17,7 11,5 16,9 14,3 15,9 16,0 18 10 34 18 S 999,3 30 1 0,0
21.09.2018 07:00:00 17,4 11,4 16,2 14,1 16,0 16,0 17 9 28 15 S 1000,3 30 0 0,0
21.09.2018 06:00:00 17,1 11,4 16,1 13,9 16,1 16,0 14 8 29 16 S 1001,6 30 0 0,0
21.09.2018 05:00:00 16,1 11,2 14,7 13,7 16,2 16,0 13 7 21 12 S 1003,4 44 0 0,0
21.09.2018 04:00:00 16,1 11,6 14,5 13,9 16,4 16,0 10 5 18 10 S 1004,5 37 0 0,0
21.09.2018 03:00:00 16,4 11,9 14,9 14,2 16,6 16,0 10 5 20 11 S 1005,4 36 0 0,0
21.09.2018 02:00:00 16,3 12,3 14,6 14,6 16,7 16,0 9 5 17 9 S 1006,6 34 0 0,0
21.09.2018 01:00:00 16,6 12,7 14,8 14,8 16,9 16,0 9 5 17 9 S 1007,6 30 0 0,0
21.09.2018 00:00:00 16,8 13,1 15,2 15,0 17,1 16,0 10 5 17 9 S 1008,6 31 0 0,0
20.09.2018 23:00:00 16,2 13,7 13,7 15,3 17,3 16,0 8 4 11 6 S 1009,7 28 0 0,0
20.09.2018 22:00:00 16,7 14,5 14,3 16,0 17,5 16,0 8 4 12 6 S 1010,4 25 0 0,0
20.09.2018 21:00:00 17,5 14,4 15,7 16,8 17,6 15,9 7 4 16 9 S 1011,0 25 0 0,0
20.09.2018 20:00:00 18,5 14,4 17,6 17,5 17,6 15,9 9 5 19 10 SW 1011,3 30 0 0,0
20.09.2018 19:00:00 19,1 14,9 18,6 18,2 17,6 15,9 10 5 33 18 SW 1011,7 35 0 0,0
20.09.2018 18:00:00 20,3 14,7 20,1 18,9 17,6 15,9 16 9 34 18 WSW 1012,1 35 0 0,0
20.09.2018 17:00:00 20,6 14,4 20,5 19,3 17,5 15,9 16 9 37 20 SW 1012,1 35 3 0,0
20.09.2018 16:00:00 20,9 14,1 22,6 19,5 17,3 15,9 20 11 41 22 SW 1012,2 40 13 0,0
20.09.2018 15:00:00 19,9 13,5 20,0 19,2 17,2 15,9 21 11 43 23 SW 1013,1 40 0 0,0
20.09.2018 14:00:00 20,0 14,2 21,2 19,3 17,0 15,9 21 11 45 24 SW 1013,2 40 7 0,0
20.09.2018 13:00:00 19,3 14,2 20,1 18,9 16,8 15,9 20 11 43 23 SW 1013,2 30 3 0,0
20.09.2018 12:00:00 19,1 14,7 20,0 18,4 16,7 15,9 22 12 38 21 WSW 1013,5 30 3 0,0
20.09.2018 11:00:00 18,5 14,5 19,3 17,9 16,6 15,9 17 9 35 19 SW 1013,9 30 0 0,0
20.09.2018 10:00:00 17,7 14,3 17,8 17,0 16,5 15,9 18 10 36 20 SW 1013,7 28 0 0,0
20.09.2018 09:00:00 17,8 14,1 18,0 16,7 16,5 15,9 17 9 32 17 SW 1013,7 30 36 0,0
20.09.2018 08:00:00 17,0 13,9 16,6 15,7 16,5 15,9 16 8 32 18 SSW 1013,5 30 0 0,0
20.09.2018 07:00:00 17,3 13,9 17,0 15,9 16,6 15,9 15 8 36 19 SW 1013,6 30 0 0,0
20.09.2018 06:00:00 17,5 14,0 17,2 15,9 16,6 15,9 15 8 29 16 SW 1013,5 30 0 0,0
20.09.2018 05:00:00 17,5 14,0 17,2 15,7 16,7 15,9 16 9 32 17 SW 1013,5 32 0 0,0
20.09.2018 04:00:00 17,6 13,9 17,1 15,4 16,8 15,9 14 8 29 16 SW 1013,5 36 0 0,0
20.09.2018 03:00:00 17,5 13,7 16,5 15,3 16,9 15,9 16 9 34 18 SW 1013,3 38 0 0,0
20.09.2018 02:00:00 17,9 13,6 16,8 15,5 17,1 15,9 17 9 36 20 SW 1013,5 36 0 0,0
20.09.2018 01:00:00 18,3 13,7 17,0 15,6 17,3 15,9 18 10 41 22 WSW 1013,7 42 0 0,0
20.09.2018 00:00:00 18,3 13,1 17,1 15,7 17,5 15,8 15 8 31 17 SW 1013,9 38 0 0,0
19.09.2018 23:00:00 18,0 13,5 16,8 16,1 17,7 15,8 15 8 27 14 SSW 1013,9 32 0 0,0
19.09.2018 22:00:00 17,0 14,0 15,7 16,3 17,9 15,8 12 6 21 11 SSW 1014,2 25 0 0,0
19.09.2018 21:00:00 17,8 14,4 16,5 16,9 18,1 15,8 9 5 17 9 SW 1014,1 26 0 0,0
19.09.2018 20:00:00 18,7 14,6 17,2 17,9 18,2 15,8 10 6 23 13 SW 1013,7 26 0 0,0
19.09.2018 19:00:00 19,9 15,1 19,0 19,1 18,2 15,8 12 6 39 21 W 1013,5 24 14 0,0
19.09.2018 18:00:00 21,8 15,3 21,5 20,3 18,1 15,8 23 12 44 24 W 1013,2 29 4 0,0
19.09.2018 17:00:00 23,6 13,9 23,2 21,0 17,9 15,8 24 13 49 26 SSW 1012,7 40 26 0,0
19.09.2018 16:00:00 23,6 13,8 24,8 21,6 17,7 15,8 23 13 41 22 SSW 1012,9 40 37 0,0
19.09.2018 15:00:00 22,6 14,3 23,2 22,1 17,3 15,8 23 12 37 20 SSW 1013,8 40 31 0,0
19.09.2018 14:00:00 21,7 14,5 22,5 21,4 16,9 15,8 17 9 37 20 SSW 1014,3 40 24 0,0
19.09.2018 13:00:00 21,3 14,3 23,1 21,2 16,5 15,8 15 8 34 18 SW 1014,6 40 42 0,0
19.09.2018 12:00:00 20,5 14,0 22,0 20,6 16,1 15,8 17 9 35 19 WSW 1015,2 40 60 0,0
19.09.2018 11:00:00 18,9 14,5 20,4 18,5 15,9 15,8 15 8 37 20 SW 1014,8 25 56 0,0
19.09.2018 10:00:00 16,6 13,9 17,2 16,8 15,8 15,8 19 10 34 18 SW 1015,0 20 60 0,0
19.09.2018 09:00:00 15,5 14,1 15,3 15,3 15,8 15,8 19 10 30 16 SSW 1014,6 15 1 0,0

tt = Température de l'air
td = dewpoint
tt 5cm = Température de l'air 5cm
tt -5cm = Température de l'air -5cm
tt -20cm = Température de l'air -20cm
tt -100cm = Température de l'air -100cm
ff = Vitesse du vent
fx = gusts
dd = Direction du vent
ppp = reduced air pressure
vv = visibility
sd = Ensoleillement
rr = Quantités de précipitations

stations d'obs. à proximité